PSLV R/B (43739 NORAD) Tracking and Keplerian Element Data

This shows tracking and keplerian element data for the satellite.

Feedback or suggestion? Click here.




ElementValue
Catalog43739
NamePSLV R/B
Epoch Orbit164
Epoch Day343.898437
Epoch Year2018
RAAN48.9384
Inclination97.4243
Eccentricity0.0053076
Argument of Perigee6.6133
Mean Anonmoly353.58
Mean Motion15.37915662
Decay Rate1.336E-05
L11 43739U 18096W 18343.89843700 .00001336 00000-0 36527-4 0 9998
L22 43739 97.4243 48.9384 0053076 6.6133 353.5800 15.37915662 1643

Live tracking and technical data element details for PSLV R/B (NORAD 43739). PSLV R/B can be tracked NOW for your location showing map with azimuth and elevation plus other details from your city location.

Track the satellite on the map from your city or location and see movement details for azimuth, elevation, latitude, longitude, range, height, and movement on the map or in text.







IsCatalogInMostPopularTable: catalog: 43739, numindb: 9
Update: records affected: 1



GetName: 43739 PSLV R/B

Hit Count: updated at: Tue, 11 Dec 2018 02:45:49 GMT